Location: Helion Bumpstead
(52.0500°N, 0.4000°E)
Time: 21:35:57
(UTC+00:00)

Cosmos 2333 Rocket - Pass Details

Date: 15 November 2025
Orbit: 837 x 865 km, 70.8° (Epoch: 14 December)

Event Time Altitude Azimuth Distance (km) Brightness Sun altitude
Exits shadow 03:59:29 19° 356° (N) 1,967 4.1 -30.3°
Drops below altitude 10° 04:01:52 10° 18° (NNE) 2,514 4.9 -30.0°
Sets 04:04:55 0° 33° (NNE) 3,457 5.9 -29.5°
